LiveATC.Net - Listen to live air traffic control over the Internet!


ICAO: KSJT  IATA: SJT   Airport: San Angelo Regional Airport/Mathis Field
City: San Angelo   State/Province: Texas
Country: United States   Continent: North America
KSJT METAR Weather: KSJT 031351Z 08006KT 10SM CLR 23/18 A3010 RMK AO2 SLP167 T02330183
KSJT Flight Activity (FlightAware)
KSJT Airport Info   (iFlightPlanner)
KSJT VFR Sectional Chart   (iFlightPlanner) 
KSJT IFR Low Chart   (iFlightPlanner) 

KSJT Tower/Approach
Feed Status: UP   Listeners: 0
Listen in your browser - HTML5 player (in browser, HTML5)
Click here to listen with your own player (launches your MP3 player)
Archive Access: KSJT Tower/Approach
FacilityFrequency
Mathis Approach125.350
Mathis Tower118.300
Audio provided by: Skyline Aviation

NOTICE

Unauthorized use prohibited. See LiveATC.net Terms of Service


Airport/ARTCC Code
Frequency Search
(e.g., 124.400, 128.75)
Site-wide search
 


Browse Feeds
Top 50 Feeds
Coverage Map
Bad Weather Areas

LiveATC FAQ
Offer LiveATC feed
Contact LiveATC.net
Press Inquiries

LiveATC on iPhone
LiveATC on Android

Windows Phone
Windows 8/10

LiveATC Mobile
(Mobile browser)

ATC Audio Archives
Interesting Recordings

LiveATC Forums


Home Page
About LiveATC.net
Make a Donation
Terms of Use
Privacy Policy

Canadian Air Freqs

AIRMETs/SIGMETs

FAA Airport Status
Nat'l Airspace Status
Arrival Demand Charts


Server Software By:
Icecast.org
Liquidsoap